ZACUBE-1 (TSHEPISOSAT) (39417 NORAD) Tracking and Keplerian Element Data

This shows tracking and keplerian element data for the satellite.

Feedback or suggestion? Click here.




ElementValue
Catalog39417
NameZACUBE-1 (TSHEPISOSAT)
Epoch Orbit48630
Epoch Day324.87633945
Epoch Year2022
RAAN289.5354
Inclination97.6575
Eccentricity0.0055266
Argument of Perigee251.3306
Mean Anonmoly108.1904
Mean Motion14.83031856
Decay Rate1.749E-05
L11 39417U 13066B 22324.87633945 .00001749 00000+0 21592-3 0 9990
L22 39417 97.6575 289.5354 0055266 251.3306 108.1904 14.83031856486308



Live tracking and technical data element details for ZACUBE-1 (TSHEPISOSAT) (NORAD 39417). ZACUBE-1 (TSHEPISOSAT) can be tracked NOW for your location showing map with azimuth and elevation plus other details from your city location.







IsCatalogInMostPopularTable: catalog: 39417, numindb: 646
Update: records affected: 1



GetName: 39417 ZACUBE-1 (TSHEPISOSAT)

Hit Count: updated at: Fri, 02 Dec 2022 13:38:30 GMT